RYR38WP LKPR-EIDW

Flight info

Callsign RYR38WP
Flight time 2h 10m
Altitude 38000
Route BALTU DCT DONAD DCT VARIK L602 SODRO DCT KATCE DCT RAVLO Y70 OTBED L60 PENIL UL28 LELDO M145 BAGSO BAGSO4L
Aircraft B738/M-SDE2E3FGHIRWXY/LB1

Departure

Time 2026-05-07 11:18
Airport Václav Havel Airport Prague (LKPR)

Arrival

Time 2026-05-07 13:28
Airport Dublin Airport (EIDW)
Time Latitude Longitude Altitude Speed Heading
2026-05-07 10:32 50.10962 14.26847 1169 ft 0 kts 65°
2026-05-07 11:07 50.10961 14.26843 1173 ft 3 kts 65°
2026-05-07 11:07 50.10947 14.26808 1175 ft 4 kts 47°
2026-05-07 11:07 50.10927 14.26784 1176 ft 4 kts 21°
2026-05-07 11:07 50.10929 14.26782 1173 ft 4 kts
2026-05-07 11:08 50.10949 14.26763 1170 ft 4 kts 321°
2026-05-07 11:08 50.10963 14.26746 1173 ft 0 kts 322°
2026-05-07 11:11 50.11006 14.26703 1170 ft 13 kts 329°
2026-05-07 11:11 50.11074 14.26598 1172 ft 16 kts 280°
2026-05-07 11:12 50.11014 14.26476 1171 ft 15 kts 211°
2026-05-07 11:12 50.10929 14.26389 1173 ft 14 kts 214°
2026-05-07 11:12 50.10848 14.26303 1173 ft 14 kts 214°
2026-05-07 11:12 50.10771 14.26221 1171 ft 13 kts 214°
2026-05-07 11:13 50.10697 14.26142 1170 ft 13 kts 214°
2026-05-07 11:13 50.10625 14.26065 1172 ft 12 kts 214°
2026-05-07 11:13 50.10554 14.25992 1172 ft 12 kts 209°
2026-05-07 11:13 50.10479 14.26020 1175 ft 13 kts 133°
2026-05-07 11:14 50.10415 14.26153 1175 ft 18 kts 127°
2026-05-07 11:14 50.10330 14.26329 1176 ft 23 kts 127°
2026-05-07 11:14 50.10226 14.26540 1173 ft 26 kts 125°
2026-05-07 11:14 50.10111 14.26778 1182 ft 27 kts 127°
2026-05-07 11:15 50.10001 14.27008 1195 ft 26 kts 127°
2026-05-07 11:15 50.09898 14.27221 1201 ft 24 kts 128°
2026-05-07 11:15 50.09791 14.27408 1204 ft 23 kts 135°
2026-05-07 11:15 50.09680 14.27577 1206 ft 22 kts 135°
2026-05-07 11:16 50.09572 14.27742 1210 ft 21 kts 135°
2026-05-07 11:16 50.09467 14.27902 1214 ft 21 kts 136°
2026-05-07 11:16 50.09366 14.28058 1214 ft 20 kts 135°
2026-05-07 11:16 50.09268 14.28210 1213 ft 20 kts 135°
2026-05-07 11:17 50.09149 14.28249 1210 ft 19 kts 210°
2026-05-07 11:17 50.09085 14.28095 1207 ft 18 kts 284°
2026-05-07 11:17 50.09162 14.27926 1210 ft 23 kts 307°
2026-05-07 11:17 50.09406 14.27418 1209 ft 95 kts 306°
2026-05-07 11:18 50.09940 14.26313 1199 ft 158 kts 302°
2026-05-07 11:18 50.10614 14.24858 1869 ft 166 kts 303°
2026-05-07 11:18 50.11310 14.23423 2871 ft 167 kts 302°
2026-05-07 11:18 50.12011 14.21976 3734 ft 170 kts 302°
2026-05-07 11:19 50.12709 14.20529 4627 ft 167 kts 302°
2026-05-07 11:19 50.13460 14.18969 5077 ft 195 kts 303°
2026-05-07 11:19 50.14341 14.17137 5343 ft 222 kts 303°
2026-05-07 11:19 50.15301 14.15147 5881 ft 238 kts 303°
2026-05-07 11:20 50.16360 14.12945 6187 ft 265 kts 303°
2026-05-07 11:20 50.17468 14.10656 7067 ft 269 kts 303°
2026-05-07 11:20 50.18602 14.08308 7973 ft 274 kts 303°
2026-05-07 11:20 50.19756 14.05909 8836 ft 280 kts 303°
2026-05-07 11:21 50.20935 14.03456 9711 ft 284 kts 303°
2026-05-07 11:21 50.22082 14.00922 10421 ft 291 kts 294°
2026-05-07 11:21 50.22599 13.97803 10617 ft 308 kts 266°
2026-05-07 11:21 50.22189 13.94481 11125 ft 317 kts 251°
2026-05-07 11:22 50.21503 13.91180 11885 ft 321 kts 249°
2026-05-07 11:22 50.20776 13.87865 12747 ft 324 kts 249°
2026-05-07 11:22 50.20039 13.84522 13564 ft 328 kts 249°
2026-05-07 11:22 50.19299 13.81134 14297 ft 332 kts 249°
2026-05-07 11:23 50.18555 13.77695 15006 ft 337 kts 249°
2026-05-07 11:23 50.17808 13.74214 15743 ft 340 kts 249°
2026-05-07 11:23 50.17055 13.70696 16455 ft 344 kts 249°
2026-05-07 11:23 50.16294 13.67130 17172 ft 348 kts 249°
2026-05-07 11:24 50.15525 13.63530 17870 ft 352 kts 249°
2026-05-07 11:24 50.14747 13.59888 18516 ft 357 kts 249°
2026-05-07 11:24 50.13959 13.56202 19144 ft 359 kts 249°
2026-05-07 11:24 50.13164 13.52496 19798 ft 361 kts 249°
2026-05-07 11:25 50.12365 13.48771 20421 ft 364 kts 249°
2026-05-07 11:25 50.11557 13.45010 21035 ft 367 kts 249°
2026-05-07 11:25 50.10742 13.41223 21628 ft 371 kts 249°
2026-05-07 11:25 50.09916 13.37399 22216 ft 374 kts 249°
2026-05-07 11:26 50.09095 13.33539 22799 ft 378 kts 251°
2026-05-07 11:26 50.08716 13.29458 23328 ft 386 kts 265°
2026-05-07 11:26 50.08653 13.25268 23869 ft 388 kts 265°
2026-05-07 11:26 50.08594 13.21068 24382 ft 389 kts 265°
2026-05-07 11:27 50.08519 13.16909 24875 ft 390 kts 265°
2026-05-07 11:27 50.08422 13.12623 25356 ft 392 kts 264°
2026-05-07 11:27 50.08376 13.10740 25568 ft 393 kts 264°
2026-05-07 11:27 50.08270 13.06478 26039 ft 395 kts 265°
2026-05-07 11:28 50.08443 13.02183 26483 ft 402 kts 275°
2026-05-07 11:28 50.09070 12.97910 26917 ft 408 kts 283°
2026-05-07 11:28 50.10119 12.93770 27326 ft 416 kts 292°
2026-05-07 11:28 50.11470 12.89751 27751 ft 420 kts 294°
2026-05-07 11:29 50.12873 12.85746 28163 ft 422 kts 294°
2026-05-07 11:29 50.14290 12.81717 28530 ft 425 kts 294°
2026-05-07 11:29 50.15707 12.77655 28905 ft 428 kts 294°
2026-05-07 11:29 50.17123 12.73551 29285 ft 430 kts 293°
2026-05-07 11:30 50.18533 12.69425 29659 ft 432 kts 293°
2026-05-07 11:30 50.19945 12.65267 29991 ft 435 kts 293°
2026-05-07 11:30 50.21366 12.61069 30274 ft 438 kts 293°
2026-05-07 11:30 50.22786 12.56865 30527 ft 438 kts 293°
2026-05-07 11:31 50.24203 12.52666 30773 ft 436 kts 293°
2026-05-07 11:31 50.25618 12.48470 30949 ft 437 kts 293°
2026-05-07 11:31 50.28472 12.39974 30953 ft 443 kts 294°
2026-05-07 11:32 50.32428 12.27050 30954 ft 437 kts 290°
2026-05-07 11:33 50.34538 12.19863 30948 ft 437 kts 291°
2026-05-07 11:33 50.36923 12.12331 31005 ft 442 kts 294°
2026-05-07 11:33 50.38335 12.08028 31277 ft 444 kts 294°
2026-05-07 11:34 50.39266 12.05188 31581 ft 442 kts 294°
2026-05-07 11:34 50.40658 12.00917 32086 ft 438 kts 293°
2026-05-07 11:34 50.42479 11.95274 32611 ft 437 kts 293°
2026-05-07 11:34 50.43845 11.91012 32927 ft 438 kts 293°
2026-05-07 11:35 50.45208 11.86752 33284 ft 437 kts 293°
2026-05-07 11:35 50.46674 11.82560 33671 ft 439 kts 299°
2026-05-07 11:35 50.47882 11.79928 33916 ft 442 kts 305°
2026-05-07 11:35 50.49871 11.76242 34238 ft 442 kts 307°
2026-05-07 11:36 50.51896 11.72595 34488 ft 443 kts 307°
2026-05-07 11:36 50.53901 11.68999 34728 ft 444 kts 307°
2026-05-07 11:36 50.55956 11.65296 35027 ft 443 kts 307°
2026-05-07 11:36 50.57947 11.61681 35341 ft 443 kts 307°
2026-05-07 11:37 50.59959 11.58001 35569 ft 444 kts 307°
2026-05-07 11:37 50.61967 11.54307 35813 ft 444 kts 307°
2026-05-07 11:37 50.63639 11.51221 36027 ft 444 kts 307°
2026-05-07 11:37 50.65639 11.47521 36273 ft 444 kts 307°
2026-05-07 11:38 50.67637 11.43816 36497 ft 444 kts 307°
2026-05-07 11:38 50.69637 11.40105 36733 ft 444 kts 307°
2026-05-07 11:38 50.71636 11.36389 36958 ft 444 kts 307°
2026-05-07 11:38 50.73634 11.32671 37187 ft 444 kts 307°
2026-05-07 11:39 50.75629 11.28951 37396 ft 445 kts 307°
2026-05-07 11:39 50.77627 11.25223 37614 ft 445 kts 307°
2026-05-07 11:39 50.78920 11.22808 37751 ft 445 kts 307°
2026-05-07 11:39 50.80916 11.19074 37950 ft 445 kts 307°
2026-05-07 11:40 50.82920 11.15318 37980 ft 448 kts 307°
2026-05-07 11:40 50.86940 11.07771 37998 ft 447 kts 307°
2026-05-07 11:41 50.90930 11.00262 37990 ft 443 kts 307°
2026-05-07 11:41 50.94879 10.92805 37990 ft 440 kts 307°
2026-05-07 11:42 50.98795 10.85389 37997 ft 437 kts 307°
2026-05-07 11:42 51.02705 10.77960 38010 ft 440 kts 307°
2026-05-07 11:43 51.06663 10.70417 38000 ft 447 kts 307°
2026-05-07 11:43 51.10624 10.62850 37997 ft 448 kts 307°
2026-05-07 11:44 51.14615 10.55204 38007 ft 449 kts 307°
2026-05-07 11:44 51.18602 10.47542 38005 ft 449 kts 307°
2026-05-07 11:45 51.22578 10.39879 38002 ft 448 kts 307°
2026-05-07 11:45 51.26095 10.31749 38001 ft 443 kts 292°
2026-05-07 11:46 51.27850 10.25358 38011 ft 441 kts 290°
2026-05-07 11:46 51.30213 10.16332 38015 ft 440 kts 290°
2026-05-07 11:47 51.32586 10.07314 38007 ft 439 kts 291°
2026-05-07 11:47 51.34180 10.01310 38013 ft 438 kts 291°
2026-05-07 11:48 51.36568 9.92351 38026 ft 438 kts 291°
2026-05-07 11:48 51.38958 9.83367 38016 ft 438 kts 291°
2026-05-07 11:49 51.41339 9.74384 38026 ft 438 kts 291°
2026-05-07 11:49 51.43714 9.65382 38019 ft 438 kts 291°
2026-05-07 11:50 51.46082 9.56375 38024 ft 439 kts 291°
2026-05-07 11:50 51.48446 9.47343 38027 ft 439 kts 291°
2026-05-07 11:51 51.50791 9.38349 38022 ft 440 kts 291°
2026-05-07 11:51 51.51459 9.35779 38024 ft 440 kts 291°
2026-05-07 11:52 51.53813 9.26709 38024 ft 440 kts 291°
2026-05-07 11:52 51.56162 9.17616 38028 ft 441 kts 291°
2026-05-07 11:53 51.58509 9.08496 38032 ft 441 kts 291°
2026-05-07 11:53 51.60852 8.99357 38042 ft 442 kts 291°
2026-05-07 11:54 51.63186 8.90212 38053 ft 442 kts 291°
2026-05-07 11:54 51.65517 8.81041 38044 ft 443 kts 291°
2026-05-07 11:55 51.67843 8.71855 38051 ft 443 kts 291°
2026-05-07 11:55 51.70160 8.62665 38044 ft 442 kts 291°
2026-05-07 11:56 51.72467 8.53480 38050 ft 442 kts 291°
2026-05-07 11:56 51.74766 8.44286 38051 ft 441 kts 291°
2026-05-07 11:57 51.77053 8.35102 38051 ft 441 kts 291°
2026-05-07 11:57 51.79331 8.25914 38059 ft 441 kts 290°
2026-05-07 11:58 51.81603 8.16716 38055 ft 440 kts 290°
2026-05-07 11:58 51.83864 8.07525 38060 ft 440 kts 290°
2026-05-07 11:59 51.86098 7.98401 38066 ft 439 kts 290°
2026-05-07 11:59 51.88341 7.89208 38071 ft 439 kts 290°
2026-05-07 12:00 51.90576 7.80004 38078 ft 440 kts 290°
2026-05-07 12:00 51.92809 7.70771 38084 ft 440 kts 290°
2026-05-07 12:01 51.95037 7.61521 38062 ft 440 kts 290°
2026-05-07 12:01 51.97256 7.52270 38065 ft 440 kts 290°
2026-05-07 12:02 51.97806 7.49970 38064 ft 440 kts 290°
2026-05-07 12:02 51.99682 7.42105 38066 ft 439 kts 290°
2026-05-07 12:03 52.01881 7.32854 38064 ft 439 kts 290°
2026-05-07 12:03 52.03674 7.25282 38052 ft 438 kts 290°
2026-05-07 12:04 52.05854 7.16038 38047 ft 438 kts 290°
2026-05-07 12:04 52.08025 7.06791 38041 ft 438 kts 290°
2026-05-07 12:05 52.10189 6.97539 38043 ft 437 kts 290°
2026-05-07 12:05 52.12342 6.88288 38037 ft 437 kts 290°
2026-05-07 12:06 52.14489 6.79025 38041 ft 437 kts 289°
2026-05-07 12:06 52.16626 6.69768 38046 ft 437 kts 289°
2026-05-07 12:07 52.18757 6.60493 38043 ft 437 kts 289°
2026-05-07 12:07 52.20879 6.51221 38048 ft 437 kts 289°
2026-05-07 12:08 52.22979 6.42001 38052 ft 437 kts 289°
2026-05-07 12:08 52.25085 6.32713 38036 ft 437 kts 289°
2026-05-07 12:09 52.27183 6.23420 38050 ft 437 kts 289°
2026-05-07 12:09 52.29278 6.14101 38043 ft 437 kts 289°
2026-05-07 12:10 52.31363 6.04786 38054 ft 437 kts 289°
2026-05-07 12:10 52.33440 5.95461 38050 ft 437 kts 289°
2026-05-07 12:11 52.35512 5.86119 38063 ft 437 kts 289°
2026-05-07 12:11 52.37579 5.76758 38071 ft 437 kts 289°
2026-05-07 12:12 52.39635 5.67404 38079 ft 437 kts 289°
2026-05-07 12:12 52.41685 5.58036 38079 ft 437 kts 288°
2026-05-07 12:13 52.43728 5.48658 38079 ft 437 kts 288°
2026-05-07 12:13 52.45763 5.39271 38068 ft 437 kts 288°
2026-05-07 12:14 52.47755 5.30040 38080 ft 437 kts 288°
2026-05-07 12:14 52.49775 5.20641 38081 ft 437 kts 288°
2026-05-07 12:15 52.51787 5.11234 38076 ft 437 kts 288°
2026-05-07 12:15 52.53793 5.01812 38072 ft 437 kts 288°
2026-05-07 12:16 52.55789 4.92389 38086 ft 437 kts 288°
2026-05-07 12:16 52.57778 4.82961 38083 ft 437 kts 288°
2026-05-07 12:17 52.59747 4.73580 38084 ft 437 kts 288°
2026-05-07 12:17 52.61722 4.64128 38086 ft 437 kts 288°
2026-05-07 12:18 52.63690 4.54666 38087 ft 437 kts 288°
2026-05-07 12:18 52.65651 4.45191 38092 ft 437 kts 288°
2026-05-07 12:19 52.67603 4.35712 38095 ft 437 kts 288°
2026-05-07 12:19 52.69551 4.26211 38099 ft 437 kts 288°
2026-05-07 12:20 52.71491 4.16702 38101 ft 437 kts 288°
2026-05-07 12:20 52.73424 4.07186 38105 ft 438 kts 288°
2026-05-07 12:21 52.75350 3.97653 38101 ft 438 kts 287°
2026-05-07 12:21 52.77267 3.88117 38107 ft 438 kts 287°
2026-05-07 12:22 52.79181 3.78555 38104 ft 438 kts 287°
2026-05-07 12:22 52.81086 3.68987 38109 ft 439 kts 287°
2026-05-07 12:23 52.82987 3.59394 38109 ft 439 kts 287°
2026-05-07 12:23 52.84879 3.49796 38107 ft 439 kts 287°
2026-05-07 12:24 52.86754 3.40239 38116 ft 440 kts 287°
2026-05-07 12:24 52.88634 3.30611 38111 ft 440 kts 287°
2026-05-07 12:25 52.90510 3.20958 38114 ft 440 kts 287°
2026-05-07 12:25 52.92018 3.12843 38107 ft 440 kts 283°
2026-05-07 12:26 52.93365 3.02957 38122 ft 440 kts 281°
2026-05-07 12:26 52.94600 2.93095 38112 ft 440 kts 281°
2026-05-07 12:27 52.95864 2.83165 38116 ft 440 kts 281°
2026-05-07 12:27 52.97147 2.73232 38113 ft 440 kts 281°
2026-05-07 12:28 52.98428 2.63296 38116 ft 440 kts 281°
2026-05-07 12:28 52.99700 2.53358 38115 ft 440 kts 281°
2026-05-07 12:29 53.00963 2.43409 38115 ft 440 kts 281°
2026-05-07 12:29 53.02217 2.33461 38116 ft 440 kts 281°
2026-05-07 12:30 53.03464 2.23493 38113 ft 440 kts 281°
2026-05-07 12:30 53.04702 2.13537 38114 ft 440 kts 281°
2026-05-07 12:31 53.05933 2.03569 38115 ft 440 kts 281°
2026-05-07 12:31 53.07157 1.93599 38113 ft 440 kts 281°
2026-05-07 12:32 53.08371 1.83637 38114 ft 440 kts 281°
2026-05-07 12:32 53.09578 1.73665 38113 ft 440 kts 280°
2026-05-07 12:33 53.11374 1.58689 38108 ft 440 kts 280°
2026-05-07 12:33 53.12560 1.48704 38111 ft 440 kts 280°
2026-05-07 12:34 53.13730 1.38775 38105 ft 440 kts 280°
2026-05-07 12:34 53.14899 1.28783 38104 ft 440 kts 280°
2026-05-07 12:35 53.16059 1.18783 38105 ft 440 kts 280°
2026-05-07 12:35 53.17211 1.08786 38104 ft 439 kts 279°
2026-05-07 12:36 53.18355 0.98770 38102 ft 439 kts 279°
2026-05-07 12:36 53.19490 0.88760 38094 ft 440 kts 279°
2026-05-07 12:37 53.20616 0.78746 38094 ft 439 kts 279°
2026-05-07 12:37 53.21736 0.68719 38091 ft 440 kts 279°
2026-05-07 12:38 53.22846 0.58693 38089 ft 440 kts 279°
2026-05-07 12:38 53.23950 0.48653 38083 ft 440 kts 279°
2026-05-07 12:39 53.25044 0.38616 38076 ft 440 kts 279°
2026-05-07 12:39 53.26120 0.28566 38075 ft 440 kts 279°
2026-05-07 12:40 53.27189 0.18504 38071 ft 440 kts 279°
2026-05-07 12:40 53.28245 0.08506 38075 ft 440 kts 279°
2026-05-07 12:41 53.29298 -0.01565 38068 ft 440 kts 278°
2026-05-07 12:41 53.30340 -0.11636 38071 ft 440 kts 278°
2026-05-07 12:42 53.31376 -0.21732 38070 ft 440 kts 278°
2026-05-07 12:42 53.32405 -0.31828 38077 ft 440 kts 278°
2026-05-07 12:43 53.33425 -0.41928 38077 ft 440 kts 278°
2026-05-07 12:43 53.34443 -0.52031 38072 ft 440 kts 278°
2026-05-07 12:44 53.35457 -0.62138 38071 ft 440 kts 278°
2026-05-07 12:44 53.36451 -0.72233 38078 ft 440 kts 278°
2026-05-07 12:45 53.37427 -0.82346 38074 ft 440 kts 278°
2026-05-07 12:45 53.38396 -0.92448 38072 ft 440 kts 278°
2026-05-07 12:46 53.39392 -1.02554 38061 ft 439 kts 278°
2026-05-07 12:46 53.40374 -1.12658 38060 ft 439 kts 278°
2026-05-07 12:47 53.41329 -1.22766 38060 ft 439 kts 277°
2026-05-07 12:47 53.42255 -1.32874 38055 ft 439 kts 277°
2026-05-07 12:48 53.43197 -1.42915 38049 ft 439 kts 277°
2026-05-07 12:48 53.44138 -1.53013 38059 ft 438 kts 277°
2026-05-07 12:49 53.45063 -1.63123 38044 ft 438 kts 277°
2026-05-07 12:49 53.45975 -1.73215 38055 ft 438 kts 277°
2026-05-07 12:50 53.46881 -1.83317 38044 ft 437 kts 277°
2026-05-07 12:50 53.47761 -1.93419 38041 ft 437 kts 277°
2026-05-07 12:51 53.48631 -2.03518 38041 ft 437 kts 277°
2026-05-07 12:51 53.49496 -2.13615 38048 ft 437 kts 276°
2026-05-07 12:52 53.50354 -2.23721 38047 ft 437 kts 276°
2026-05-07 12:52 53.51209 -2.33829 38042 ft 437 kts 276°
2026-05-07 12:53 53.52056 -2.43942 38037 ft 437 kts 276°
2026-05-07 12:53 53.52893 -2.54053 38042 ft 437 kts 276°
2026-05-07 12:54 53.53722 -2.64175 38038 ft 437 kts 276°
2026-05-07 12:54 53.54542 -2.74295 38046 ft 437 kts 276°
2026-05-07 12:55 53.55353 -2.84423 38045 ft 437 kts 276°
2026-05-07 12:55 53.56156 -2.94545 38042 ft 437 kts 276°
2026-05-07 12:56 53.56557 -2.99648 37560 ft 442 kts 276°
2026-05-07 12:56 53.56955 -3.04731 37211 ft 436 kts 276°
2026-05-07 12:56 53.57348 -3.09777 36778 ft 432 kts 276°
2026-05-07 12:56 53.57734 -3.14764 36379 ft 428 kts 276°
2026-05-07 12:57 53.58109 -3.19645 35996 ft 425 kts 275°
2026-05-07 12:57 53.58485 -3.24557 35592 ft 422 kts 275°
2026-05-07 12:57 53.58856 -3.29434 35190 ft 419 kts 275°
2026-05-07 12:57 53.59223 -3.34288 34796 ft 417 kts 275°
2026-05-07 12:58 53.59586 -3.39113 34398 ft 415 kts 275°
2026-05-07 12:58 53.59946 -3.43929 33975 ft 414 kts 274°
2026-05-07 12:58 53.60302 -3.48724 33523 ft 411 kts 274°
2026-05-07 12:58 53.60655 -3.53481 33108 ft 409 kts 274°
2026-05-07 12:59 53.61005 -3.58223 32702 ft 406 kts 274°
2026-05-07 12:59 53.61348 -3.62915 32310 ft 403 kts 275°
2026-05-07 12:59 53.61870 -3.67545 31877 ft 404 kts 283°
2026-05-07 12:59 53.62824 -3.72047 31225 ft 410 kts 290°
2026-05-07 13:00 53.63548 -3.74978 30929 ft 409 kts 291°
2026-05-07 13:00 53.65029 -3.80875 30391 ft 406 kts 290°
2026-05-07 13:00 53.66105 -3.85251 30006 ft 403 kts 290°
2026-05-07 13:00 53.67152 -3.89611 29582 ft 400 kts 289°
2026-05-07 13:01 53.68180 -3.93940 29198 ft 395 kts 289°
2026-05-07 13:01 53.69199 -3.98204 28925 ft 388 kts 290°
2026-05-07 13:01 53.70212 -4.02376 28578 ft 383 kts 290°
2026-05-07 13:01 53.71192 -4.06529 28217 ft 378 kts 285°
2026-05-07 13:02 53.71818 -4.10789 27870 ft 370 kts 274°
2026-05-07 13:02 53.72035 -4.15080 27525 ft 364 kts 270°
2026-05-07 13:02 53.72168 -4.19332 27145 ft 362 kts 269°
2026-05-07 13:02 53.72291 -4.23553 26787 ft 359 kts 270°
2026-05-07 13:03 53.72422 -4.27748 26427 ft 356 kts 270°
2026-05-07 13:03 53.72561 -4.31904 26066 ft 354 kts 270°
2026-05-07 13:03 53.72707 -4.36044 25717 ft 351 kts 270°
2026-05-07 13:03 53.72852 -4.40149 25369 ft 349 kts 270°
2026-05-07 13:04 53.72995 -4.44228 25023 ft 347 kts 270°
2026-05-07 13:04 53.73136 -4.48280 24749 ft 343 kts 270°
2026-05-07 13:04 53.73275 -4.52288 24405 ft 341 kts 270°
2026-05-07 13:04 53.73411 -4.56275 24075 ft 339 kts 270°
2026-05-07 13:05 53.73544 -4.60192 23744 ft 338 kts 269°
2026-05-07 13:05 53.73677 -4.64141 23373 ft 336 kts 270°
2026-05-07 13:05 53.73808 -4.68081 22981 ft 335 kts 270°
2026-05-07 13:05 53.73938 -4.71989 22626 ft 332 kts 270°
2026-05-07 13:06 53.74065 -4.75865 22288 ft 329 kts 270°
2026-05-07 13:06 53.74190 -4.79716 21951 ft 326 kts 270°
2026-05-07 13:06 53.74312 -4.83528 21619 ft 324 kts 270°
2026-05-07 13:06 53.74436 -4.87300 21343 ft 320 kts 270°
2026-05-07 13:07 53.74561 -4.91039 21007 ft 318 kts 270°
2026-05-07 13:07 53.74684 -4.94755 20687 ft 316 kts 270°
2026-05-07 13:07 53.74804 -4.98440 20365 ft 314 kts 270°
2026-05-07 13:07 53.74924 -5.02114 20045 ft 312 kts 270°
2026-05-07 13:08 53.75041 -5.05753 19729 ft 310 kts 270°
2026-05-07 13:08 53.75156 -5.09376 19408 ft 308 kts 270°
2026-05-07 13:08 53.75217 -5.12980 19091 ft 305 kts 263°
2026-05-07 13:08 53.74856 -5.16469 18790 ft 299 kts 251°
2026-05-07 13:09 53.74205 -5.19786 18498 ft 297 kts 249°
2026-05-07 13:09 53.73521 -5.23071 18175 ft 295 kts 249°
2026-05-07 13:09 53.72841 -5.26332 17827 ft 294 kts 249°
2026-05-07 13:09 53.72168 -5.29588 17499 ft 292 kts 249°
2026-05-07 13:10 53.71507 -5.32806 17193 ft 289 kts 249°
2026-05-07 13:10 53.70853 -5.36010 16877 ft 287 kts 249°
2026-05-07 13:10 53.70206 -5.39188 16571 ft 285 kts 249°
2026-05-07 13:10 53.69563 -5.42343 16265 ft 283 kts 249°
2026-05-07 13:11 53.68924 -5.45477 15961 ft 282 kts 249°
2026-05-07 13:11 53.68287 -5.48591 15659 ft 280 kts 249°
2026-05-07 13:11 53.67713 -5.51719 15357 ft 279 kts 253°
2026-05-07 13:11 53.67294 -5.54868 15067 ft 278 kts 255°
2026-05-07 13:12 53.66903 -5.58052 14772 ft 277 kts 256°
2026-05-07 13:12 53.66512 -5.61220 14476 ft 275 kts 255°
2026-05-07 13:12 53.66113 -5.64373 14180 ft 274 kts 255°
2026-05-07 13:12 53.65707 -5.67515 13889 ft 273 kts 255°
2026-05-07 13:13 53.65298 -5.70636 13569 ft 272 kts 255°
2026-05-07 13:13 53.64888 -5.73744 13246 ft 271 kts 255°
2026-05-07 13:13 53.64480 -5.76833 12942 ft 269 kts 255°
2026-05-07 13:13 53.64072 -5.79908 12646 ft 268 kts 255°
2026-05-07 13:14 53.63666 -5.82960 12348 ft 266 kts 255°
2026-05-07 13:14 53.63399 -5.84965 12162 ft 265 kts 255°
2026-05-07 13:14 53.62997 -5.87982 11873 ft 263 kts 255°
2026-05-07 13:14 53.62597 -5.90978 11582 ft 262 kts 255°
2026-05-07 13:15 53.62197 -5.93963 11297 ft 260 kts 255°
2026-05-07 13:15 53.61800 -5.96929 11013 ft 259 kts 255°
2026-05-07 13:15 53.61404 -5.99877 10731 ft 258 kts 255°
2026-05-07 13:15 53.61009 -6.02815 10447 ft 256 kts 255°
2026-05-07 13:16 53.60616 -6.05736 10174 ft 255 kts 255°
2026-05-07 13:16 53.60226 -6.08624 10028 ft 249 kts 255°
2026-05-07 13:16 53.59845 -6.11444 9803 ft 248 kts 255°
2026-05-07 13:16 53.59480 -6.14293 9592 ft 248 kts 257°
2026-05-07 13:17 53.59195 -6.17112 9485 ft 240 kts 258°
2026-05-07 13:17 53.58932 -6.19864 9257 ft 237 kts 258°
2026-05-07 13:17 53.58670 -6.22599 9003 ft 236 kts 258°
2026-05-07 13:17 53.58404 -6.25325 8754 ft 236 kts 258°
2026-05-07 13:18 53.58137 -6.28042 8487 ft 235 kts 258°
2026-05-07 13:18 53.57869 -6.30746 8223 ft 234 kts 258°
2026-05-07 13:18 53.57603 -6.33407 7963 ft 234 kts 258°
2026-05-07 13:18 53.57330 -6.36135 7711 ft 233 kts 258°
2026-05-07 13:19 53.57061 -6.38796 7473 ft 233 kts 258°
2026-05-07 13:19 53.56790 -6.41478 7255 ft 232 kts 257°
2026-05-07 13:19 53.56519 -6.44154 7025 ft 232 kts 257°
2026-05-07 13:19 53.56248 -6.46829 6813 ft 231 kts 258°
2026-05-07 13:20 53.55976 -6.49485 6607 ft 231 kts 257°
2026-05-07 13:20 53.55705 -6.52141 6413 ft 229 kts 257°
2026-05-07 13:20 53.55434 -6.54785 6139 ft 229 kts 257°
2026-05-07 13:20 53.55163 -6.57418 5876 ft 228 kts 257°
2026-05-07 13:21 53.54892 -6.60042 5586 ft 228 kts 257°
2026-05-07 13:21 53.54624 -6.62642 5353 ft 223 kts 257°
2026-05-07 13:21 53.54125 -6.65073 4875 ft 221 kts 232°
2026-05-07 13:21 53.52962 -6.66648 4675 ft 209 kts 202°
2026-05-07 13:22 53.51587 -6.67038 4565 ft 196 kts 176°
2026-05-07 13:22 53.50332 -6.66357 4451 ft 186 kts 153°
2026-05-07 13:22 53.49363 -6.64945 4165 ft 187 kts 129°
2026-05-07 13:22 53.48687 -6.63083 3914 ft 186 kts 123°
2026-05-07 13:23 53.48069 -6.61178 3615 ft 186 kts 122°
2026-05-07 13:23 53.47454 -6.59279 3351 ft 185 kts 122°
2026-05-07 13:23 53.46842 -6.57388 3090 ft 183 kts 122°
2026-05-07 13:23 53.46221 -6.55478 3042 ft 187 kts 122°
2026-05-07 13:24 53.45613 -6.53605 2984 ft 178 kts 123°
2026-05-07 13:24 53.45130 -6.51763 2994 ft 172 kts 105°
2026-05-07 13:24 53.44971 -6.49758 2836 ft 174 kts 102°
2026-05-07 13:24 53.44828 -6.47742 2590 ft 174 kts 101°
2026-05-07 13:25 53.44708 -6.45748 2353 ft 174 kts 99°
2026-05-07 13:25 53.44599 -6.43789 2127 ft 164 kts 100°
2026-05-07 13:25 53.44494 -6.41953 1926 ft 156 kts 101°
2026-05-07 13:25 53.44390 -6.40169 1718 ft 152 kts 101°
2026-05-07 13:26 53.44292 -6.38392 1531 ft 153 kts 101°
2026-05-07 13:26 53.44184 -6.36644 1299 ft 149 kts 103°
2026-05-07 13:26 53.44087 -6.34910 1080 ft 149 kts 100°
2026-05-07 13:26 53.44006 -6.33193 916 ft 148 kts 99°
2026-05-07 13:27 53.43904 -6.31506 674 ft 141 kts 99°
2026-05-07 13:27 53.43809 -6.29889 513 ft 141 kts 97°
2026-05-07 13:27 53.43730 -6.28253 280 ft 140 kts 99°
2026-05-07 13:27 53.43637 -6.26690 210 ft 124 kts 94°
2026-05-07 13:28 53.43579 -6.25525 215 ft 63 kts 96°
2026-05-07 13:28 53.43479 -6.25086 212 ft 28 kts 121°
2026-05-07 13:28 53.43446 -6.24994 212 ft 8 kts 120°
2026-05-07 13:28 53.43420 -6.24918 217 ft 8 kts 120°
2026-05-07 13:29 53.43390 -6.24833 217 ft 10 kts 120°
2026-05-07 13:29 53.43361 -6.24709 215 ft 13 kts 100°
2026-05-07 13:29 53.43350 -6.24539 210 ft 16 kts 95°
2026-05-07 13:29 53.43312 -6.24407 210 ft 13 kts 166°
2026-05-07 13:30 53.43224 -6.24417 220 ft 13 kts 197°
2026-05-07 13:30 53.43191 -6.24538 210 ft 13 kts 276°
2026-05-07 13:30 53.43199 -6.24684 210 ft 12 kts 275°
2026-05-07 13:30 53.43207 -6.24825 210 ft 12 kts 276°
2026-05-07 13:31 53.43195 -6.24938 217 ft 10 kts 212°
2026-05-07 13:31 53.43127 -6.24957 210 ft 8 kts 186°
2026-05-07 13:31 53.43108 -6.24960 217 ft 0 kts 185°